Location: Hains Lake
(37.8540°N, 99.8578°W)
Time: 16:36:51
(UTC+00:00)

Vanguard 1 - Pass Details

Date: 07 December 2021
Orbit: 652 x 3830 km, 34.2° (Epoch: 22 January)

Event Time Altitude Azimuth Distance (km) Brightness Sun altitude
Rises 05:42:57 0° 240° (WSW) 6,647 14.3 -71.6°
Reaches altitude 10° 05:46:49 10° 238° (WSW) 5,951 14.0 -72.1°
Enters shadow 05:46:51 10° 238° (WSW) 5,945 14.0 -72.1°
Exits shadow 06:27:54 15° 83° (E) 6,098 14.0 -74.8°
Drops below altitude 10° 06:29:48 10° 82° (E) 6,410 14.1 -74.8°
Sets 06:34:08 0° 81° (E) 7,156 14.5 -74.8°
